Vertical_Velocity
0 -0 -0 -1 0 -3 2 8 2 0 0 -1 0 -3 -3 -5 3 14 -4 -3 -2 4 2 4 2 -1 -2 -3 -3 -3 -3 -2 2 1 0 0 1 1 -0 -0 -0 6 1 -1 2 1 0 1 -1
0 -0 0 2 -3 8 1 -2 4 5 -1 -1 1 -2 2 9 -5 3 -1 1 -4 -3 3 2 6 2 2 1 -1 -2 -3 -1 1 1 3 1 1 2 2 -0 1 -0 0 -1 2 1 0 0 -1
-0 2 3 1 0 -4 3 1 1 3 0 1 3 1 0 7 0 1 -4 -1 -6 0 -1 3 3 5 1 -0 -1 3 -3 -0 -2 3 2 3 2 1 2 0 1 1 0 -0 2 0 1 0 -1
2 -1 1 -2 -1 -6 -5 1 -1 3 4 -2 1 2 -1 7 1 -4 -1 3 -5 2 1 0 6 3 -0 -2 1 1 -1 3 0 0 2 1 4 0 1 0 1 1 -0 0 1 -1 0 1 -0
1 -1 3 -4 -4 -2 -7 -10 3 5 3 0 3 0 -1 8 -1 -3 -3 3 2 1 0 2 4 3 0 -1 1 1 -1 2 0 2 1 2 2 -0 1 1 0 -0 -1 0 3 1 1 -1 1
1 2 -0 -1 3 -5 -6 5 1 1 7 -0 -2 -2 -2 -0 -1 1 -3 2 2 6 5 3 -4 0 1 1 -0 -2 -3 0 3 -3 4 3 4 1 -1 1 -1 1 -2 4 1 1 3 -0 2
0 3 -2 1 -9 -4 -6 4 0 -1 -1 3 5 -3 -3 20 -6 0 -1 3 2 4 6 5 -1 -1 -2 1 2 1 -1 -1 1 0 -3 4 2 2 2 0 -1 1 -1 -2 0 -1 0 -0 -1
3 0 -3 -5 -4 3 5 -3 -1 3 -2 -6 2 16 8 -2 0 2 0 -2 2 2 7 4 6 3 1 5 3 1 -0 1 -2 1 -2 -0 2 3 2 1 1 -1 1 1 0 -2 2 -2 -1
0 -4 -2 0 1 1 6 -4 4 -0 -3 5 1 1 -0 -12 2 -1 -1 2 3 0 2 6 3 5 3 1 2 3 -3 -1 1 -0 -1 -3 1 -1 1 0 1 -0 0 2 1 1 -1 -1 -1
4 2 -3 -2 3 3 -1 -3 -17 -4 5 -3 0 0 -5 -8 -6 1 1 -2 1 2 -1 4 2 6 7 3 1 -1 3 1 -1 -1 -0 2 -3 4 2 0 -1 -1 1 1 2 1 -1 -1 -1
-1 -2 3 0 -1 -1 -3 -6 1 -17 -1 6 -12 -2 5 4 -7 -3 4 1 -0 -0 -4 -3 6 3 4 4 5 1 -2 0 1 -1 -3 1 1 -4 1 0 -0 -1 -1 2 1 1 1 0 -1
3 -4 4 1 -0 -3 -2 0 -7 -6 -13 -3 -4 -6 5 7 0 -3 -1 4 4 8 10 -0 4 1 2 1 2 5 2 0 -0 -1 -3 -3 2 -1 1 1 -1 1 -1 0 0 2 1 -1 -1
-4 1 -5 -2 -3 -5 -7 -3 -5 -9 -7 -17 -5 -1 -1 2 2 -4 -1 1 4 5 2 2 -8 1 1 1 2 2 5 1 3 1 -0 0 -1 3 -5 2 -0 1 1 -1 -0 1 1 -1 -1
-3 3 1 -4 3 -11 -15 2 1 6 3 -0 -7 -26 -2 -11 3 -2 -2 -3 0 0 1 -0 2 -3 5 3 1 4 5 5 1 0 1 0 -1 -1 3 -3 1 1 0 -1 -0 1 -0 -2 -2
-4 -5 -3 3 -4 -6 -12 15 5 2 0 -1 0 -4 -24 -2 -2 6 -2 -2 2 4 4 2 6 -1 3 5 1 3 3 5 4 1 1 1 2 -1 3 -1 -1 0 -1 -2 1 -1 1 -2 -1
-4 -2 -2 -2 14 -4 -2 -33 -17 -2 -3 -4 -3 -1 1 -20 -9 9 8 -16 1 2 -0 3 2 5 -2 4 -0 2 2 3 1 3 0 1 2 -2 -2 1 0 -1 -1 -1 0 -3 2 -1 -1
-1 -2 -3 -7 8 -8 0 -34 31 9 14 -7 -4 -4 -5 -5 -30 13 -2 2 -4 2 5 -0 -3 6 2 2 3 -4 8 5 1 2 3 2 2 1 -2 2 1 2 -3 -1 -0 -1 1 -1 -0
-7 -4 -5 2 17 -9 0 -26 -22 4 1 -2 -4 2 -1 2 -1 -16 4 7 2 7 -0 -2 4 3 6 7 8 6 1 4 -3 -1 4 -1 2 0 1 -4 2 1 0 -2 -1 0 1 -1 0
-3 -0 -4 6 2 -10 -4 0 -5 -22 16 2 -11 -4 -5 -4 15 -1 -27 11 5 -2 -1 5 5 5 0 -4 -5 7 -8 3 -5 1 2 0 -1 2 1 -4 0 0 2 3 -4 -1 -2 -1 -0
-0 -1 -7 1 -5 -1 11 5 5 7 -1 -3 -8 -8 -8 -11 -5 2 3 12 -1 -4 11 3 4 2 1 -3 5 10 4 4 9 3 3 -2 -1 0 -0 -0 -4 2 3 2 -0 -4 -1 -4 -3
-2 -0 -1 -4 3 -3 4 -4 -5 -6 -11 -2 1 2 2 -1 -7 -1 1 -5 6 -6 3 12 10 3 2 1 -0 5 6 1 -8 -10 -4 -3 -2 2 -0 1 1 -1 0 1 2 -0 -1 -1 -1
-0 0 -5 -1 2 1 7 -20 5 -6 -2 -4 -6 -2 -10 -9 -9 -4 1 -6 4 -2 2 13 5 13 3 -1 -8 -3 -4 -5 6 0 1 1 0 -1 2 2 1 -1 1 0 3 3 -0 -0 1
-4 -3 0 2 1 6 -2 9 16 -7 -13 -16 -6 -6 -0 -1 -1 1 -1 1 3 4 -1 11 7 11 -1 -8 2 4 19 4 2 7 11 2 1 -0 4 3 4 0 -3 -2 0 2 0 1 -0
-5 -5 -6 -0 2 6 2 1 15 -11 -7 -4 -3 -0 -1 1 2 3 4 6 6 1 3 4 8 6 3 -5 13 7 10 33 -10 1 -0 11 -2 2 5 2 5 5 -0 -1 2 2 0 -0 2
-5 -1 -3 4 9 2 5 -2 6 0 -0 -3 -5 -1 -3 1 4 5 8 7 5 13 7 -1 9 10 -1 10 17 -10 -0 -77 1 -2 -2 7 -6 -27 -1 3 5 3 4 3 2 -0 -2 3 -1
-5 -2 6 2 3 -4 -1 4 4 -4 -5 0 2 2 1 -1 6 3 6 5 3 12 12 8 14 5 8 10 21 9 17 4 3 -18 -9 -6 -3 -1 4 0 -0 12 3 3 0 1 -1 0 0
13 5 3 1 -4 10 2 -0 -0 -0 -3 0 -3 1 3 4 9 9 13 7 5 11 -3 -14 2 1 11 4 14 -7 11 7 -9 8 2 0 8 4 3 10 7 4 -1 6 10 -2 2 3 2
-7 2 8 4 2 -1 3 1 1 -10 -5 -0 -2 -3 2 3 8 8 13 4 6 11 -2 -17 -19 7 10 -3 -5 31 -8 3 7 -5 1 -6 2 3 -4 2 8 11 8 14 13 6 18 10 6
16 1 -1 -1 0 3 1 8 1 -2 -0 -1 1 0 2 -3 -3 13 5 9 8 2 -11 42 11 24 1 6 2 -5 8 -3 -7 -2 1 -0 6 2 4 10 1 -1 4 7 6 1 -17 -20 -3
1 14 3 12 -3 4 -1 7 -1 -0 0 0 3 3 4 2 4 10 8 3 6 6 12 -7 36 -5 15 11 4 1 1 0 2 4 1 3 3 -2 -2 6 -9 2 5 -3 -1 9 6 2 -12
Height
3147 3147 3147 3148 3156 3151 3149 3150 3147 3147 3147 3146 3145 3147 3147 3148 3149 3151 3145 3143 3142 3142 3145 3147 3148 3149 3150 3150 3150 3148 3146 3145 3145 3147 3147 3149 3150 3150 3151 3152 3152 3152 3153 3154 3155 3157 3157 3158 3159
3144 3144 3145 3146 3151 3147 3145 3148 3146 3145 3144 3143 3143 3144 3146 3146 3144 3143 3142 3141 3140 3141 3143 3145 3147 3148 3149 3149 3148 3147 3145 3145 3144 3145 3146 3147 3149 3149 3150 3151 3152 3153 3153 3153 3155 3155 3156 3157 3159
3141 3142 3146 3146 3145 3144 3144 3143 3143 3141 3140 3141 3141 3142 3143 3143 3141 3140 3140 3139 3139 3141 3142 3144 3147 3148 3148 3148 3147 3146 3145 3144 3144 3144 3145 3146 3147 3148 3150 3151 3152 3152 3152 3153 3154 3154 3155 3157 3158
3139 3140 3141 3140 3139 3141 3141 3141 3139 3140 3141 3139 3139 3140 3140 3139 3138 3139 3138 3138 3137 3139 3141 3143 3145 3147 3147 3147 3145 3144 3144 3144 3143 3143 3144 3145 3146 3147 3149 3150 3151 3151 3151 3152 3154 3155 3155 3156 3158
3136 3137 3138 3136 3135 3136 3135 3137 3138 3137 3137 3136 3135 3136 3137 3134 3134 3135 3135 3135 3135 3137 3139 3141 3143 3145 3145 3144 3143 3143 3143 3143 3143 3142 3143 3144 3145 3146 3147 3148 3149 3150 3150 3151 3153 3154 3155 3156 3157
3134 3134 3134 3132 3131 3131 3130 3133 3133 3133 3133 3132 3131 3131 3133 3130 3129 3130 3132 3132 3132 3134 3137 3139 3140 3142 3142 3142 3141 3141 3141 3141 3141 3142 3141 3142 3143 3144 3146 3147 3148 3149 3150 3151 3152 3153 3154 3155 3156
3130 3132 3129 3129 3128 3127 3127 3129 3129 3128 3127 3129 3125 3125 3129 3129 3124 3127 3128 3128 3128 3131 3134 3136 3138 3138 3139 3139 3139 3139 3139 3139 3139 3140 3140 3141 3142 3143 3144 3146 3146 3148 3148 3150 3151 3152 3153 3154 3154
3127 3126 3125 3124 3124 3123 3125 3122 3123 3123 3120 3118 3120 3124 3124 3117 3120 3122 3124 3124 3125 3126 3130 3132 3134 3134 3135 3136 3136 3137 3137 3138 3137 3138 3138 3138 3140 3141 3142 3144 3145 3146 3147 3149 3150 3151 3152 3152 3152
3122 3123 3121 3121 3120 3120 3120 3116 3117 3114 3113 3114 3114 3113 3113 3110 3114 3116 3118 3120 3121 3122 3123 3127 3129 3131 3132 3133 3134 3134 3136 3136 3135 3135 3136 3136 3137 3138 3140 3142 3143 3145 3146 3147 3148 3150 3150 3151 3151
3118 3118 3117 3115 3113 3112 3110 3108 3109 3109 3108 3107 3108 3105 3101 3106 3107 3108 3112 3113 3115 3117 3118 3121 3124 3126 3128 3129 3130 3131 3133 3134 3134 3134 3134 3135 3135 3136 3138 3139 3141 3142 3143 3144 3146 3148 3148 3150 3150
3111 3111 3112 3107 3106 3104 3103 3102 3102 3101 3098 3101 3096 3097 3097 3097 3102 3102 3103 3106 3109 3111 3112 3115 3118 3120 3123 3125 3126 3128 3130 3131 3132 3132 3131 3132 3134 3135 3135 3136 3138 3140 3141 3142 3144 3145 3147 3147 3148
3106 3105 3102 3102 3100 3097 3096 3094 3090 3091 3088 3092 3089 3090 3088 3087 3090 3094 3095 3095 3098 3101 3105 3106 3111 3116 3119 3120 3122 3124 3126 3128 3129 3130 3130 3130 3131 3132 3133 3134 3136 3137 3139 3140 3141 3142 3144 3145 3146
3098 3097 3096 3094 3092 3091 3089 3085 3083 3078 3078 3079 3082 3079 3079 3078 3077 3082 3087 3087 3088 3089 3094 3098 3102 3110 3114 3116 3117 3119 3122 3124 3126 3126 3127 3128 3128 3130 3131 3131 3132 3134 3136 3137 3139 3140 3141 3143 3143
3094 3092 3089 3087 3085 3083 3079 3076 3075 3074 3070 3067 3066 3069 3069 3068 3068 3067 3075 3079 3080 3082 3084 3087 3094 3099 3105 3109 3112 3114 3116 3119 3121 3123 3124 3125 3126 3126 3128 3129 3130 3131 3133 3134 3136 3137 3138 3139 3140
3089 3085 3084 3082 3081 3079 3072 3065 3070 3067 3064 3060 3059 3057 3054 3058 3059 3057 3058 3067 3070 3073 3076 3078 3083 3089 3095 3101 3105 3108 3110 3113 3116 3119 3121 3122 3123 3123 3125 3126 3127 3128 3130 3131 3132 3134 3135 3136 3137
3083 3081 3082 3079 3078 3074 3069 3045 3063 3059 3056 3052 3050 3047 3044 3043 3045 3047 3045 3048 3061 3061 3064 3067 3071 3077 3084 3090 3097 3101 3104 3107 3111 3113 3116 3118 3120 3121 3122 3123 3124 3125 3127 3128 3129 3131 3132 3133 3134
3079 3078 3077 3075 3072 3069 3066 3049 3049 3053 3050 3044 3040 3038 3034 3031 3029 3032 3033 3033 3043 3051 3054 3057 3060 3066 3074 3081 3087 3094 3098 3101 3103 3107 3110 3113 3116 3117 3119 3120 3121 3122 3123 3125 3126 3128 3128 3130 3130
3077 3074 3071 3069 3071 3063 3057 3050 3042 3040 3041 3036 3032 3028 3024 3019 3017 3019 3020 3019 3021 3035 3040 3044 3048 3054 3063 3071 3077 3083 3089 3093 3096 3099 3104 3107 3111 3113 3115 3117 3119 3119 3120 3121 3123 3125 3125 3126 3127
3072 3069 3065 3065 3060 3055 3050 3045 3043 3033 3030 3030 3024 3020 3015 3010 3010 3008 3006 3008 3007 3016 3023 3033 3039 3043 3049 3057 3064 3071 3079 3086 3089 3092 3097 3101 3105 3108 3110 3113 3115 3116 3117 3119 3120 3121 3122 3123 3123
3069 3065 3062 3056 3056 3052 3040 3037 3037 3034 3027 3020 3015 3010 3005 2999 2997 2998 2997 2997 2990 2992 3005 3016 3027 3033 3038 3047 3057 3067 3074 3079 3083 3086 3090 3095 3099 3102 3105 3108 3111 3112 3114 3115 3116 3117 3118 3119 3119
3066 3063 3059 3055 3050 3046 3038 3030 3031 3030 3021 3014 3008 3002 2996 2990 2985 2983 2982 2982 2977 2984 2988 2999 3013 3022 3029 3038 3048 3056 3064 3069 3074 3078 3083 3089 3093 3096 3100 3103 3105 3107 3109 3110 3111 3112 3113 3113 3115
3062 3060 3056 3052 3048 3043 3042 3025 3027 3021 3018 3010 3002 2993 2986 2977 2972 2972 2972 2971 2969 2972 2977 2986 2997 3009 3019 3027 3037 3046 3054 3060 3067 3071 3077 3082 3087 3091 3094 3096 3099 3102 3104 3105 3106 3107 3108 3108 3109
3059 3056 3052 3049 3045 3043 3035 3032 3018 3014 3007 3002 2994 2986 2979 2972 2967 2963 2963 2962 2961 2964 2968 2975 2986 2999 3009 3018 3028 3038 3044 3054 3062 3067 3069 3073 3081 3085 3089 3091 3093 3096 3098 3099 3101 3101 3102 3102 3102
3055 3051 3048 3045 3043 3036 3029 3030 3015 3012 3008 2999 2991 2983 2975 2970 2963 2959 2956 2955 2955 2957 2962 2970 2978 2991 3001 3010 3018 3023 3026 3031 3055 3062 3067 3066 3073 3078 3082 3084 3087 3089 3091 3092 3094 3095 3095 3095 3095
3053 3053 3043 3039 3033 3022 3024 3024 3020 3015 3010 3002 2991 2981 2973 2967 2961 2956 2952 2952 2952 2954 2958 2966 2972 2984 2994 3002 3009 3017 3016 3024 3049 3057 3061 3061 3066 3072 3075 3077 3079 3082 3085 3086 3087 3088 3089 3088 3088
3053 3053 3049 3043 3028 3024 3022 3020 3021 3017 3010 3002 2993 2982 2973 2967 2958 2953 2948 2951 2954 2955 2960 2966 2970 2979 2988 2996 3002 3012 3021 3034 3042 3047 3050 3053 3059 3064 3068 3069 3071 3075 3077 3079 3080 3080 3082 3082 3081
3050 3049 3047 3043 3032 3029 3019 3021 3019 3017 3009 3001 2992 2983 2973 2966 2956 2951 2949 2952 2954 2957 2962 2966 2973 2980 2986 2992 3000 3009 3016 3025 3034 3038 3042 3048 3051 3055 3058 3060 3063 3066 3069 3069 3071 3072 3074 3075 3075
3047 3046 3044 3039 3030 3018 3015 3019 3021 3013 3007 3000 2993 2984 2976 2969 2961 2955 2949 2955 2957 2959 2963 2968 2978 2978 2985 2992 3003 2999 3012 3017 3023 3029 3036 3039 3042 3045 3048 3051 3054 3057 3059 3061 3062 3064 3065 3066 3067
3044 3042 3040 3037 3032 3022 3013 3020 3020 3015 3009 3002 2995 2989 2981 2974 2967 2959 2958 2958 2960 2962 2967 2965 2967 2975 2981 2989 2992 3001 3009 3014 3020 3025 3027 3030 3033 3036 3039 3042 3045 3048 3050 3051 3052 3050 3052 3055 3058
3040 3038 3034 3030 3024 3022 3020 3023 3020 3017 3011 3004 2998 2992 2986 2979 2973 2965 2963 2961 2962 2964 2965 2971 2970 2976 2984 2988 2993 2998 3003 3008 3012 3016 3019 3022 3025 3028 3030 3034 3037 3040 3041 3043 3043 3045 3046 3047 3048